Regional Weather Roundup
Issued by NWS

Home | Current Version | Previous Version | Text Only | Print | Product List | Glossary Off
Versions: 1 2 3 4 5 6 7 8 9 10 11 12 13 14 15 16 17 18 19 20 21 22 23 24 25 26 27 28 29 30 31 32 33 34 35 36 37 38 39 40 41 42 43 44 45 46 47 48 49 50

419
ASUS45 KSLC 240610
RWRUT

UTAH REGIONAL WEATHER ROUNDUP
NATIONAL WEATHER SERVICE SALT LAKE CITY UT
1200 AM MDT WED AUG 24 2016

UTZ001>011-023>025-240700-

NORTHERN UTAH

CITY           SKY/WX    TMP DP  RH WIND       PRES   REMARKS
BRIGHAM CITY     N/A     69  17  13 W3        30.11R
HILL AFB       CLEAR     71  21  15 VRB2      30.12R
LOGAN          CLEAR     59  31  34 S3        30.14R
OGDEN          CLEAR     73  17  12 N8        30.09R
PROVO AIRPORT  CLEAR     64  43  45 SE6       30.10R
SALT LAKE CITY CLEAR     69  35  28 SW3       30.07R
VERNAL         CLOUDY    62  44  51 W7        30.17R
WENDOVER       CLEAR     72  19  14 W7        30.12R
HEBER CITY     CLEAR     54  34  47 E3        30.17R
WEST JORDAN    CLEAR     71  27  19 NW7       30.11R

$$

UTZ012>022-026-027-240700-

SOUTHERN/CENTRAL UTAH

CITY           SKY/WX    TMP DP  RH WIND       PRES   REMARKS
BLANDING       MOCLDY    54  49  83 W3        30.33F
BRYCE CANYON   CLOUDY    56  39  53 N18G25    30.37F
CEDAR CITY     CLOUDY    64  41  42 NE10G21   30.23S
DELTA          MOCLDY    66  48  52 CALM      30.13R
MILFORD        CLOUDY    65  45  48 W12       30.16F
MOAB/CYNLANDS  CLOUDY    63  56  78 N3        30.15R
PRICE          CLOUDY    60  42  51 E5        30.23F
ST GEORGE      CLEAR     79  46  31 CALM      30.09R

$$

REGIONAL REPORTS     COLORADO/ARIZONA

CITY           SKY/WX    TMP DP  RH WIND       PRES   REMARKS
CRAIG, CO      CLOUDY    56  45  66 CALM      30.25S
GRAND JUNCTION CLOUDY    67  49  52 SE15G26   30.19S
RIFLE          CLOUDY    58  55  90 CALM      30.24F
MONTROSE       LGT RAIN  57  51  80 S5        30.29F
CORTEZ         CLOUDY    54  53  97 CALM      30.28S
PAGE, AZ       CLOUDY    72  50  45 SW7       30.18R
GRAND CANYON   CLOUDY    58  51  78 VRB3      30.36R
KINGMAN        CLEAR     69  63  81 SE3       30.12R
FLAGSTAFF      CLOUDY    53  50  89 W3        30.36S

$$

REGIONAL REPORTS    NEVADA/IDAHO/WYOMING

CITY           SKY/WX    TMP DP  RH WIND       PRES   REMARKS
LAS VEGAS, NV  MOCLDY    88  52  29 N8        30.00R
ELY            CLEAR     54  35  48 VRB5      30.24S
ELKO           CLEAR     65  17  15 NE7       30.17R
POCATELLO, ID  CLEAR     59  18  20 S10       30.14R
BURLEY         CLEAR     57  25  29 S9        30.12S
EVANSTON, WY   CLEAR     56  22  26 E6        30.28S
ROCK SPRINGS   CLOUDY    58   9  14 NW3       30.24S

$$




USA.gov is the U.S. government's official web portal to all federal, state and local government web resources and services.